Location: Sobotiste
(48.7170°N, 17.4000°E)
Time: 19:09:14
(UTC+01:00)

OTV 5 (USA 277) - Visible Passes

Search period start: 17 January 2019 00:00
Search period end: 27 January 2019 00:00
Orbit: 339 x 349 km, 54.5° (Epoch: 15 January)

Date Brightness Start Highest point End Pass type
(mag) Time Alt. Az. Time Alt. Az. Time Alt. Az.
17 Jan ? 17:03:37 10° WSW 17:05:04 13° SW 17:06:30 10° SSW visible
23 Jan ? 06:46:46 10° SSE 06:47:40 11° SE 06:48:34 10° ESE visible
25 Jan ? 05:59:26 10° SE 06:00:07 11° SE 06:00:49 10° ESE visible
26 Jan ? 06:20:55 10° SSW 06:23:27 27° SE 06:26:00 10° ENE visible
